Theta_e
331 331 334 337 341 339 343 342 345 343 342 341 342 345 345 348 350 352 352 351 352 352 352 352 351 351 351 353 353 354 355 353
331 333 335 336 337 341 342 346 347 342 343 343 342 342 347 348 350 355 352 352 352 353 353 354 353 351 353 355 355 355 355 354
329 332 336 338 338 337 337 337 339 340 339 340 339 342 346 347 353 355 353 353 352 352 352 354 355 355 356 357 358 357 356 355
327 328 332 335 337 338 342 341 338 337 336 335 339 344 345 348 353 354 353 352 353 356 356 358 358 358 360 361 359 357 355 354
326 327 328 331 335 337 338 337 336 337 337 339 342 346 349 350 354 354 355 353 352 356 359 360 360 361 360 358 357 355 354 353
326 327 328 330 332 334 337 339 336 337 335 336 338 343 348 351 356 357 358 357 354 358 360 360 359 357 356 354 352 351 348 348
325 325 327 329 331 333 335 335 336 336 334 335 336 339 342 348 352 357 359 359 359 361 359 359 358 355 352 350 349 348 349 348
326 325 325 326 329 332 334 335 333 333 334 333 335 345 345 347 350 356 360 359 359 360 361 359 354 351 349 348 348 348 348 346
328 326 325 326 327 328 330 330 330 331 332 333 336 339 346 347 349 353 359 359 360 360 360 356 352 349 348 348 347 347 346 345
329 330 329 327 329 329 329 329 329 330 332 332 337 343 345 347 348 352 356 359 361 361 358 355 351 348 347 348 348 347 346 345
335 330 328 330 331 332 333 331 331 333 331 332 341 347 348 346 347 350 355 359 361 359 358 354 351 349 348 347 347 346 345 343
337 334 331 330 338 341 339 332 340 340 340 342 343 343 347 348 347 349 354 357 360 359 357 353 351 349 348 347 346 345 343 342
335 336 333 338 341 341 338 341 343 344 346 349 350 347 350 349 348 349 354 358 358 357 355 352 349 348 349 347 346 345 343 341
339 339 338 338 342 343 346 345 346 346 346 350 350 347 348 349 351 351 356 359 357 355 353 351 350 349 349 348 345 342 340 339
336 338 346 342 342 342 342 344 345 344 344 345 348 347 348 349 353 356 358 358 357 355 354 352 350 350 349 344 341 339 337 333
345 334 337 341 341 341 341 342 341 340 343 345 348 347 348 353 352 358 359 359 357 357 355 353 351 350 344 339 338 335 332 329
344 342 340 340 340 340 338 338 339 339 342 345 347 348 349 353 353 355 360 359 358 355 352 351 348 341 339 335 333 332 330 327
340 342 340 339 338 338 338 340 342 342 343 346 347 349 350 354 356 355 356 355 352 346 343 340 343 341 337 334 333 330 327 322
337 336 338 337 336 337 338 340 342 342 343 346 349 349 350 353 352 345 347 345 343 341 342 337 335 333 334 333 331 326 321 319
Wind_Speed
17 15 15 11 12 12 10 7 8 3 2 10 5 3 7 7 8 6 7 8 9 9 11 13 17 17 18 20 20 20 17 15
16 14 8 13 5 8 11 8 9 2 4 7 6 10 2 8 9 10 11 11 11 10 12 13 15 17 16 16 16 17 13 10
17 19 20 10 13 12 8 4 7 9 2 5 6 5 2 6 10 13 14 12 12 11 14 14 14 14 15 15 15 12 10 9
18 18 16 15 21 18 10 10 7 7 11 11 4 3 1 7 11 13 13 12 12 14 15 13 12 13 14 14 13 12 10 7
11 15 10 14 16 13 14 11 10 10 8 5 1 2 3 12 13 12 14 15 13 13 12 13 15 16 16 15 15 13 13 13
12 16 18 19 18 15 18 13 12 10 14 9 8 2 4 11 14 14 14 15 14 13 11 17 18 18 18 17 17 17 15 14
14 13 10 20 21 20 18 17 17 12 13 9 13 7 3 11 14 15 16 17 16 15 14 19 20 19 18 18 18 18 17 15
15 14 10 13 16 18 17 19 10 14 16 14 9 2 5 9 16 16 17 18 18 18 17 21 22 21 21 20 19 18 17 17
14 10 12 15 16 14 13 13 13 16 16 15 10 10 5 8 17 19 18 19 20 21 20 24 25 25 23 22 20 19 18 17
6 7 12 8 12 11 8 10 14 17 18 15 9 14 11 9 17 20 19 20 20 20 25 25 24 23 23 22 22 20 18 17
6 11 6 9 7 9 11 9 7 10 15 13 10 13 18 11 13 18 19 19 23 28 28 27 27 26 24 22 21 20 18 16
5 11 11 12 11 4 3 10 4 2 7 8 8 10 3 2 12 18 18 23 26 29 29 28 27 28 26 23 22 20 17 15
9 9 8 8 6 4 9 3 5 8 8 10 10 9 7 10 10 15 20 25 28 30 29 29 29 28 26 23 20 19 19 16
3 5 11 6 6 6 5 4 8 8 9 10 10 10 9 6 10 13 18 24 29 27 27 28 28 27 24 21 20 19 18 15
4 4 5 4 8 6 7 7 7 9 10 10 10 7 2 4 11 13 16 23 26 25 27 27 27 24 22 21 21 19 17 14
4 12 6 5 6 7 10 8 9 9 10 9 9 8 3 3 10 12 16 20 23 25 25 26 25 24 27 27 24 19 15 13
9 12 9 7 6 6 6 6 8 9 8 8 8 6 3 4 7 10 15 19 22 23 20 21 26 29 27 31 28 21 16 12
8 4 4 6 6 7 7 6 7 7 7 5 5 4 1 2 6 8 10 13 16 20 22 22 16 25 24 22 28 25 16 13
8 6 7 11 14 12 7 5 5 5 4 6 2 2 1 5 8 10 13 14 18 21 24 26 27 6 14 21 21 18 14 12
Wind_Direction
211 211 230 201 234 266 297 236 254 303 295 266 100 112 176 174 161 156 139 141 153 163 155 160 169 178 182 185 191 194 197 205
207 228 211 265 3 215 219 267 271 295 257 254 326 9 138 170 170 136 136 142 145 142 145 149 148 162 171 178 183 192 195 196
207 209 213 191 230 243 312 308 302 284 281 75 306 18 357 158 148 147 144 142 142 141 141 137 138 146 151 163 167 174 184 193
210 226 227 248 219 232 225 223 234 298 285 291 320 336 221 160 148 146 144 145 145 137 134 137 139 138 138 143 151 165 176 182
225 184 205 232 232 252 257 261 281 283 290 79 289 219 196 163 151 151 152 154 154 146 142 147 143 139 139 139 141 145 151 149
224 225 211 213 228 225 242 242 244 236 280 310 315 280 179 179 168 157 158 162 166 160 155 149 143 144 144 147 146 146 149 142
239 253 248 213 221 221 233 251 266 285 292 299 303 331 291 197 181 166 162 163 161 154 159 153 152 151 151 150 148 149 144 135
230 228 232 247 240 241 217 251 273 275 278 283 307 351 274 201 182 182 172 166 162 155 162 161 157 158 157 155 152 151 147 142
230 204 226 231 236 214 222 223 248 256 260 262 295 299 281 214 192 190 179 169 164 166 167 165 164 162 160 157 156 156 151 145
237 176 219 223 188 216 238 279 280 262 266 278 315 307 296 237 199 193 180 169 167 165 166 166 164 163 156 159 159 157 155 153
218 217 224 168 163 196 215 275 299 284 257 265 305 301 274 215 210 190 182 172 170 166 163 164 163 160 158 161 162 161 161 156
179 269 227 232 134 152 261 254 112 275 298 299 295 284 20 302 187 178 174 171 167 163 159 162 161 161 163 166 166 164 162 160
219 243 255 101 130 155 228 349 19 358 340 320 303 306 350 336 191 173 167 164 162 160 162 163 162 163 165 165 169 164 160 157
238 265 249 115 131 246 25 355 358 350 342 328 318 299 287 303 193 171 165 160 162 160 158 160 163 164 163 162 157 153 150 153
287 350 66 172 301 340 347 335 348 338 332 324 314 320 323 208 176 169 167 163 165 157 155 160 164 163 153 139 149 150 145 150
312 246 305 345 331 309 302 304 320 322 322 318 320 321 287 189 181 169 166 175 163 156 159 157 158 157 147 149 149 142 145 155
254 268 300 89 27 12 340 311 303 306 311 316 315 336 323 194 189 177 170 173 161 164 153 146 141 137 149 149 147 139 154 164
287 44 328 328 357 346 322 323 324 309 314 317 302 310 342 158 167 164 132 159 140 136 135 130 136 148 154 152 138 145 155 167
279 297 281 293 297 285 279 295 317 311 318 306 323 312 190 134 127 142 148 128 128 133 130 123 119 128 151 147 138 149 154 154